Location: La Bastide
(43.1661°N, 1.2755°E)
Time: 17:53:49
(UTC+00:00)

ISS - Pass Details

Date: 20 February 2026
Orbit: 416 x 427 km, 51.6° (Epoch: 6 March)

Event Time Altitude Azimuth Distance (km) Brightness Sun altitude
Exits shadow 05:30:54 19° 319° (NW) 1,079 -2.1 -14.3°
Maximum altitude 05:32:02 22° 348° (NNW) 969 -2.1 -14.1°
Drops below altitude 10° 05:34:43 10° 42° (NE) 1,495 -0.4 -13.6°
Sets 05:37:08 0° 58° (ENE) 2,358 1.0 -13.2°
